Location: Dal�� Lhota
(48.7500°N, 14.0167°E)
Time: 17:28:06
(UTC+00:00)

Explorer 7 - Pass Details

Date: 09 August 2021
Orbit: 484 x 676 km, 50.3° (Epoch: 21 September)

Event Time Altitude Azimuth Distance (km) Brightness Sun altitude
Rises 05:50:26 0° 287° (WNW) 2,584 9.7 18.5°
Reaches altitude 10° 05:52:35 10° 284° (WNW) 1,718 8.8 18.8°
Maximum altitude 05:56:25 63° 204° (SSW) 585 7.1 19.5°
Drops below altitude 10° 06:00:28 10° 123° (ESE) 1,807 10.5 20.1°
Sets 06:02:47 0° 120° (ESE) 2,733 11.4 20.5°
